MOLNIYA 1-S

Last updated on Nov. 19, 2019, 4:25 a.m. UTC

1 07392U 74060A   19321.86580550 -.00000333  00000-0  00000-0 0  9991
2 07392   7.3713 296.3744 0007485 187.3143 350.7986  1.00249614110074
UTC
Height (km)
Latitude
Longitude
Inclination
Orbital Period
UTC large
Height (km)
Speed (km/s)
/
Latitude / Longitude
Inclination (degrees)
Orbital Period (minutes)
Azimuth
Elevation
Range (km)
Doppler Factor
iOS Compass Heading
iOS Angle

Next 30 passes for location: Hong Kong

Rise time Rise Azimuth (degrees) Set time Set Azimuth (degrees) Duration Max altitude (degrees)

No matching passes for this satellites